Flag for U.S.A. Weather past 2 weeks in Dover, Delaware, U.S.A.

Now
42 °F

Overcast.


Feels Like: 33 °F
Forecast: 36 / 57 °F
Wind: 16 mph from Southwest

Location: Dover Air Force Base

Current Time: Mar 30, 2015 at 10:47:08 AM

Latest Report: Mar 30, 2015 at 9:58 AM


Visibility: 10 mi

Pressure: 29.93 "Hg

Humidity: 76%

Dew point: 35 °F

Location of DoverLocation

Historic Weather in Dover — Graph

°F

Dover temperature yesterday

Maximum temperature yesterday: 44 °F (at 4:58 PM)
Minimum temperature yesterday: 25 °F (at 4:58 AM)
Average temperature yesterday: 34 °F

Past Weeks' High & Low Weather Summary

 TemperatureHumidityPressure
High70 °F (Mar 17, 12:58 PM)100% (Mar 16, 8:58 PM)30.42 "Hg (Mar 16, 8:58 PM)
Low25 °F (Mar 29, 4:58 AM)23% (Mar 18, 3:58 PM)29.57 "Hg (Mar 26, 7:58 PM)
Average41 °F68%30.06 "Hg
* Reported Mar 15 8:58 AM — Mar 30 8:58 AM, Dover, Weather by CustomWeather, © 2015

Note: Actual official high and low records may vary slightly from our data, if they occured in-between our weather recording intervals... More about our weather records

Advertising

Dover weather history for previous 24 hours

 ConditionsComfort  
Time TempWeatherWind HumidityBarometerVisibility
8:58 AM
Mon, Mar 30
39 °FCloudy.15 mph88%29.94 "Hg10 mi
7:58 AM37 °FLight rain. Partly sunny.13 mph100%29.96 "Hg10 mi
6:58 AM38 °FLight rain. Partly cloudy.10 mph87%29.98 "Hg10 mi
5:58 AM38 °FMostly cloudy.10 mph65%30.00 "Hg10 mi
4:58 AM36 °FPassing clouds.10 mph72%30.02 "Hg10 mi
3:58 AM38 °FLight rain. Passing clouds.8 mph63%30.08 "Hg10 mi
2:58 AM37 °FPassing clouds.12 mph50%30.09 "Hg10 mi
1:58 AM35 °FPassing clouds.9 mph48%30.12 "Hg10 mi
12:58 AM34 °FPassing clouds.8 mph49%30.16 "Hg10 mi
11:58 PM
Sun, Mar 29
32 °FClear.8 mph56%30.17 "Hg10 mi
10:58 PM31 °FClear.7 mph53%30.19 "Hg10 mi
9:58 PM33 °FClear.5 mph49%30.22 "Hg10 mi
8:58 PM34 °FClear.6 mph48%30.23 "Hg10 mi
7:58 PM36 °FSunny.7 mph42%30.22 "Hg10 mi
6:58 PM42 °FSunny.8 mph28%30.20 "Hg10 mi
5:58 PM43 °FSunny.9 mph27%30.22 "Hg10 mi
4:58 PM44 °FSunny.8 mph27%30.22 "Hg10 mi
3:58 PM43 °FSunny.10 mph28%30.23 "Hg10 mi
2:58 PM43 °FSunny.14 mph29%30.25 "Hg10 mi
1:58 PM40 °FSunny.9 mph28%30.31 "Hg10 mi
12:58 PM39 °FSunny.13 mph28%30.34 "Hg10 mi
11:58 AM37 °FSunny.14 mph29%30.35 "Hg10 mi
10:58 AM35 °FSunny.14 mph34%30.36 "Hg10 mi
Weather by CustomWeather, © 2015

See weather overviewHow to use our weather pages